AXM703 WMKK-WSSS

Flight info

Callsign AXM703
Flight time N/A
Altitude 27000
Route RUSBU1D RUSBU Y511 TOPOR A464 ARAMA DCT TEBUN TEBUN1A
Aircraft A20N/M-SDE2E3FGHIRWXY/LB1

Departure

Time 2026-05-06 16:35
Airport Kuala Lumpur International Airport (WMKK)

Arrival

Time N/A
Airport Singapore Changi Airport (WSSS)
Time Latitude Longitude Altitude Speed Heading
2026-05-06 16:09 2.74039 101.68482 74 ft 0 kts 326°
2026-05-06 16:17 2.74030 101.68488 75 ft 2 kts 326°
2026-05-06 16:17 2.74017 101.68497 75 ft 2 kts 326°
2026-05-06 16:17 2.74005 101.68505 75 ft 2 kts 326°
2026-05-06 16:18 2.73992 101.68514 75 ft 2 kts 326°
2026-05-06 16:18 2.73979 101.68521 75 ft 2 kts 350°
2026-05-06 16:18 2.73964 101.68521 75 ft 2 kts 15°
2026-05-06 16:18 2.73950 101.68514 75 ft 2 kts 41°
2026-05-06 16:19 2.73944 101.68508 75 ft 1 kts 57°
2026-05-06 16:19 2.73941 101.68503 75 ft 0 kts 57°
2026-05-06 16:21 2.73941 101.68504 74 ft 0 kts 57°
2026-05-06 16:22 2.73963 101.68535 74 ft 12 kts 56°
2026-05-06 16:22 2.74030 101.68634 75 ft 21 kts 56°
2026-05-06 16:22 2.74115 101.68758 75 ft 21 kts 57°
2026-05-06 16:22 2.74196 101.68878 75 ft 20 kts 55°
2026-05-06 16:23 2.74275 101.68993 75 ft 19 kts 56°
2026-05-06 16:23 2.74352 101.69106 75 ft 19 kts 56°
2026-05-06 16:23 2.74426 101.69214 75 ft 18 kts 56°
2026-05-06 16:23 2.74499 101.69322 75 ft 18 kts 56°
2026-05-06 16:24 2.74554 101.69428 75 ft 14 kts 115°
2026-05-06 16:24 2.74518 101.69458 75 ft 8 kts 140°
2026-05-06 16:24 2.74436 101.69519 75 ft 17 kts 143°
2026-05-06 16:24 2.74333 101.69587 75 ft 17 kts 147°
2026-05-06 16:25 2.74301 101.69684 75 ft 17 kts 60°
2026-05-06 16:25 2.74367 101.69782 75 ft 16 kts 54°
2026-05-06 16:25 2.74433 101.69876 75 ft 16 kts 56°
2026-05-06 16:25 2.74496 101.69971 75 ft 16 kts 56°
2026-05-06 16:26 2.74560 101.70066 75 ft 16 kts 56°
2026-05-06 16:26 2.74627 101.70164 75 ft 18 kts 56°
2026-05-06 16:26 2.74701 101.70271 75 ft 18 kts 55°
2026-05-06 16:26 2.74773 101.70375 75 ft 18 kts 55°
2026-05-06 16:27 2.74844 101.70481 75 ft 17 kts 56°
2026-05-06 16:27 2.74913 101.70584 75 ft 17 kts 56°
2026-05-06 16:27 2.74981 101.70685 75 ft 17 kts 56°
2026-05-06 16:27 2.75049 101.70786 75 ft 17 kts 56°
2026-05-06 16:28 2.75116 101.70885 75 ft 17 kts 56°
2026-05-06 16:28 2.75184 101.70985 75 ft 17 kts 56°
2026-05-06 16:28 2.75251 101.71082 75 ft 16 kts 56°
2026-05-06 16:28 2.75317 101.71180 75 ft 16 kts 56°
2026-05-06 16:29 2.75383 101.71278 75 ft 16 kts 56°
2026-05-06 16:29 2.75449 101.71374 75 ft 16 kts 55°
2026-05-06 16:29 2.75514 101.71469 75 ft 16 kts 63°
2026-05-06 16:29 2.75461 101.71558 75 ft 16 kts 145°
2026-05-06 16:30 2.75366 101.71621 75 ft 16 kts 146°
2026-05-06 16:30 2.75301 101.71664 75 ft 16 kts 146°
2026-05-06 16:30 2.75171 101.71753 75 ft 16 kts 145°
2026-05-06 16:30 2.75073 101.71818 75 ft 17 kts 146°
2026-05-06 16:31 2.74973 101.71886 75 ft 17 kts 145°
2026-05-06 16:31 2.74872 101.71953 75 ft 17 kts 147°
2026-05-06 16:31 2.74771 101.72019 75 ft 17 kts 147°
2026-05-06 16:31 2.74741 101.72039 75 ft 0 kts 146°
2026-05-06 16:32 2.74740 101.72040 75 ft 0 kts 146°
2026-05-06 16:32 2.74722 101.72052 75 ft 4 kts 146°
2026-05-06 16:32 2.74691 101.72073 75 ft 5 kts 137°
2026-05-06 16:32 2.74676 101.72115 75 ft 7 kts 85°
2026-05-06 16:33 2.74701 101.72162 75 ft 8 kts 56°
2026-05-06 16:33 2.74736 101.72212 75 ft 9 kts 47°
2026-05-06 16:33 2.74798 101.72229 75 ft 10 kts 341°
2026-05-06 16:34 2.74981 101.72112 75 ft 46 kts 326°
2026-05-06 16:34 2.75459 101.71790 75 ft 115 kts 326°
2026-05-06 16:34 2.76299 101.71230 76 ft 170 kts 328°
2026-05-06 16:34 2.77332 101.70543 475 ft 181 kts 328°
2026-05-06 16:35 2.78411 101.69852 1018 ft 186 kts 333°
2026-05-06 16:35 2.79504 101.69210 1713 ft 183 kts 330°
2026-05-06 16:35 2.80635 101.68587 2219 ft 192 kts 338°
2026-05-06 16:35 2.81951 101.68141 2627 ft 207 kts 346°
2026-05-06 16:36 2.83384 101.67718 3045 ft 225 kts 343°
2026-05-06 16:36 2.84954 101.67183 3424 ft 247 kts 342°
2026-05-06 16:36 2.86633 101.66589 3970 ft 263 kts 341°
2026-05-06 16:36 2.88392 101.65984 4592 ft 274 kts 347°
2026-05-06 16:37 2.90297 101.65959 5426 ft 274 kts 17°
2026-05-06 16:37 2.91935 101.66823 6304 ft 273 kts 43°
2026-05-06 16:37 2.93056 101.68365 7124 ft 275 kts 66°
2026-05-06 16:37 2.93812 101.70110 7933 ft 279 kts 67°
2026-05-06 16:38 2.94560 101.71916 8697 ft 283 kts 73°
2026-05-06 16:38 2.94711 101.73866 9442 ft 287 kts 99°
2026-05-06 16:38 2.94016 101.75713 10231 ft 290 kts 122°
2026-05-06 16:38 2.92642 101.77240 10799 ft 301 kts 135°
2026-05-06 16:39 2.91071 101.78692 11152 ft 318 kts 135°
2026-05-06 16:39 2.89374 101.80253 11456 ft 336 kts 135°
2026-05-06 16:39 2.87632 101.81866 11731 ft 353 kts 135°
2026-05-06 16:39 2.85794 101.83579 12180 ft 363 kts 135°
2026-05-06 16:40 2.83928 101.85322 12841 ft 366 kts 135°
2026-05-06 16:40 2.82070 101.87061 13479 ft 368 kts 135°
2026-05-06 16:40 2.80199 101.88818 14067 ft 371 kts 135°
2026-05-06 16:40 2.78300 101.90604 14641 ft 375 kts 135°
2026-05-06 16:41 2.76393 101.92396 15206 ft 378 kts 134°
2026-05-06 16:41 2.74474 101.94200 15752 ft 381 kts 134°
2026-05-06 16:41 2.72527 101.96032 16294 ft 385 kts 134°
2026-05-06 16:41 2.70581 101.97862 16797 ft 388 kts 134°
2026-05-06 16:42 2.68606 101.99723 17285 ft 391 kts 134°
2026-05-06 16:42 2.66607 102.01606 17780 ft 394 kts 134°
2026-05-06 16:42 2.64616 102.03482 18255 ft 397 kts 134°
2026-05-06 16:42 2.62596 102.05382 18722 ft 400 kts 134°
2026-05-06 16:43 2.60545 102.07309 19179 ft 403 kts 135°
2026-05-06 16:43 2.58425 102.09177 19626 ft 407 kts 138°
2026-05-06 16:43 2.56205 102.10915 20066 ft 410 kts 141°
2026-05-06 16:43 2.53885 102.12648 20486 ft 414 kts 141°
2026-05-06 16:44 2.51563 102.14374 20909 ft 416 kts 141°
2026-05-06 16:44 2.49226 102.16112 21315 ft 419 kts 141°
2026-05-06 16:44 2.46882 102.17858 21719 ft 421 kts 141°
2026-05-06 16:44 2.44522 102.19617 22111 ft 424 kts 141°
2026-05-06 16:45 2.42127 102.21403 22509 ft 426 kts 141°
2026-05-06 16:45 2.39756 102.23172 22891 ft 429 kts 141°
2026-05-06 16:45 2.37338 102.24977 23276 ft 431 kts 141°
2026-05-06 16:45 2.34927 102.26776 23651 ft 433 kts 141°
2026-05-06 16:46 2.32482 102.28602 24030 ft 435 kts 141°
2026-05-06 16:46 2.30060 102.30411 24386 ft 438 kts 141°
2026-05-06 16:46 2.27600 102.32247 24741 ft 440 kts 141°
2026-05-06 16:46 2.25149 102.34077 25086 ft 442 kts 141°
2026-05-06 16:47 2.22688 102.35914 25420 ft 444 kts 141°
2026-05-06 16:47 2.20200 102.37773 25758 ft 446 kts 141°
2026-05-06 16:47 2.17706 102.39636 26071 ft 448 kts 141°
2026-05-06 16:47 2.15197 102.41513 26374 ft 450 kts 141°
2026-05-06 16:48 2.12668 102.43404 26682 ft 452 kts 141°
2026-05-06 16:48 2.10150 102.45286 26836 ft 453 kts 141°
2026-05-06 16:48 2.07643 102.47157 26838 ft 453 kts 141°
2026-05-06 16:48 2.05114 102.49084 26839 ft 452 kts 139°
2026-05-06 16:49 2.02765 102.51161 26840 ft 451 kts 134°
2026-05-06 16:49 2.00613 102.53435 26840 ft 449 kts 129°
2026-05-06 16:49 1.98663 102.55872 26837 ft 449 kts 126°
2026-05-06 16:49 1.96784 102.58361 26835 ft 449 kts 125°
2026-05-06 16:50 1.94925 102.60850 26836 ft 449 kts 125°
2026-05-06 16:50 1.93072 102.63330 26834 ft 449 kts 125°
2026-05-06 16:50 1.91183 102.65853 26835 ft 449 kts 125°
2026-05-06 16:50 1.91051 102.66030 26835 ft 449 kts 125°